Weather History for Atlanta Dekalb, GA

Change the Weather History Date:

Thursday, June 14, 2012

  Actual Average Record
Temperature  
Mean Temperature 76 °F 77 °F  
Max Temperature 84 °F 87 °F 93 °F (1998)
Min Temperature 70 °F 67 °F 64 °F (2002)
Cooling Degree Days 11 12  
Month to date cooling degree days 143  
Year to date cooling degree days 354  
Since 1 June cooling degree days 143  
Growing Degree Days 26 (Base 50)    
Moisture  
Dew Point 66 °F    
Average Humidity 73    
Maximum Humidity 93    
Minimum Humidity 54    
Precipitation  
Precipitation 0.00 in 0.16 in 1.54 in (2002)
Month to date precipitation 1.98  
Year to date precipitation 24.47  
Sea Level Pressure  
Sea Level Pressure 30.01 in    
Wind  
Wind Speed 3 mph (ENE)    
Max Wind Speed 10 mph    
Max Gust Speed 20 mph    
Visibility 9 miles    
Events      
T = Trace of Precipitation, MM = Missing Value Source: NWS Daily Summary

Daily Weather History Graph

Daily Weather History Graph

Search for Another Location

Airport:

Trip Planner

Search our weather history database for the weather conditions in past years. The results will help you decide how hot, cold, wet, or windy it might be!

Date:

Astronomy

Jun. 14, 2012 Rise Set
Actual Time 6:25 AM EDT 8:49 PM EDT
Civil Twilight 5:56 AM EDT 9:18 PM EDT
Nautical Twilight 5:20 AM EDT 9:54 PM EDT
Astronomical Twilight 4:41 AM EDT 10:33 PM EDT
Moon 2:58 AM EDT (6/14) 4:39 PM EDT (6/14)
Length of Visible Light 15h 22m
Length of Day
14h 23m
Waning Crescent, 21% of the Moon is Illuminated
Jun 14
Waning Crescent
Jun 19
New
Jun 26
First Quarter
Jul 3
Full
Jul 10
Last Quarter

Hourly Weather History & Observations

Time (EDT) Temp. Heat Index Dew Point Humidity Pressure Visibility Wind Dir Wind Speed Gust Speed Precip Events Conditions
12:53 AM 72.0 °F - 68.0 °F 87% 29.94 in 9.0 mi Calm Calm - N/A   Clear
1:53 AM 72.0 °F - 68.0 °F 87% 29.93 in 9.0 mi Calm Calm - N/A   Clear
2:53 AM 72.0 °F - 68.0 °F 87% 29.94 in 8.0 mi Calm Calm - N/A   Clear
3:53 AM 71.1 °F - 68.0 °F 90% 29.94 in 7.0 mi Variable 3.5 mph - N/A   Partly Cloudy
4:53 AM 70.0 °F - 68.0 °F 93% 29.94 in 7.0 mi Calm Calm - N/A   Mostly Cloudy
5:53 AM 70.0 °F - 68.0 °F 93% 29.94 in 7.0 mi Calm Calm - N/A   Mostly Cloudy
6:53 AM 70.0 °F - 66.9 °F 90% 29.97 in 6.0 mi Calm Calm - N/A   Clear
7:53 AM 72.0 °F - 68.0 °F 87% 30.00 in 6.0 mi ENE 5.8 mph - N/A   Partly Cloudy
8:53 AM 73.9 °F - 69.1 °F 85% 30.02 in 7.0 mi Variable 4.6 mph - N/A   Clear
9:53 AM 75.0 °F - 69.1 °F 82% 30.05 in 8.0 mi Variable 5.8 mph - N/A   Overcast
10:53 AM 77.0 °F - 68.0 °F 74% 30.06 in 8.0 mi ENE 10.4 mph 17.3 mph N/A   Scattered Clouds
11:53 AM 79.0 °F - 68.0 °F 69% 30.05 in 8.0 mi Variable 6.9 mph - N/A   Mostly Cloudy
12:53 PM 75.9 °F - 63.0 °F 64% 30.06 in 10.0 mi ENE 10.4 mph 19.6 mph N/A   Mostly Cloudy
1:53 PM 77.0 °F - 61.0 °F 58% 30.05 in 10.0 mi NE 8.1 mph - N/A   Clear
2:53 PM 80.1 °F 81.7 °F 64.0 °F 58% 30.03 in 10.0 mi Variable 5.8 mph - N/A   Clear
3:53 PM 82.0 °F 83.8 °F 64.9 °F 56% 30.01 in 10.0 mi East 5.8 mph - N/A   Clear
4:53 PM 82.9 °F 84.6 °F 64.9 °F 54% 29.99 in 10.0 mi Variable 5.8 mph - N/A   Clear
5:53 PM 82.9 °F 84.6 °F 64.9 °F 54% 29.98 in 10.0 mi Variable 3.5 mph - N/A   Clear
6:53 PM 80.6 °F 82.3 °F 64.4 °F 58% 30.04 in 10.0 mi East 3.5 mph - N/A   Clear
7:53 PM 79.0 °F - 64.0 °F 60% 30.00 in 10.0 mi Variable 3.5 mph - N/A   Clear
8:53 PM 77.0 °F - 64.0 °F 64% 30.05 in 10.0 mi East 6.9 mph - N/A   Clear
9:53 PM 75.9 °F - 64.0 °F 67% 30.06 in 10.0 mi East 4.6 mph - N/A   Clear
10:53 PM 75.0 °F - 64.0 °F 69% 30.07 in 10.0 mi Variable 4.6 mph - N/A   Clear
11:53 PM 73.9 °F - 64.0 °F 71% 30.09 in 10.0 mi ENE 5.8 mph - N/A   Mostly Cloudy